Location: Sevilla
(37.3933°N, 5.9839°W)
Time: 05:33:46
(UTC+02:00)

Transit 2A Rocket - Pass Details

Date: 04 July 2024
Orbit: 582 x 910 km, 66.7° (Epoch: 15 July)

Event Time Altitude Azimuth Distance (km) Brightness Sun altitude
Rises 19:17:41 0° 206° (SSW) 3,066 8.3 27.3°
Reaches altitude 10° 19:19:54 10° 206° (SSW) 2,201 7.7 26.8°
Maximum altitude 19:24:58 89° 114° (ESE) 778 5.5 25.8°
Drops below altitude 10° 19:30:35 10° 28° (NNE) 2,436 7.5 24.7°
Sets 19:33:09 0° 29° (NNE) 3,419 8.2 24.2°
